Location: Holcomb Observatory
(44.4922°N, 73.1654°W)
Time: 19:24:09
(UTC-04:00)

Daily predictions for brighter satellites

Satellite Brightness Start Highest point End
(mag) Time Altitude Azimuth Time Altitude Azimuth Time Altitude Azimuth
Lacrosse 5 3.0 19:58:51 10° NW 20:03:25 33° NNE 20:08:00 10° E
EO 1 Delta rocket 4.3 20:01:13 10° NNE 20:05:40 42° E 20:10:38 10° SSE
OTV 4 2.3 20:04:20 10° WSW 20:06:37 20° S 20:08:55 10° SE
Cosmos 1697 Rocket 4.0 20:05:29 10° SE 20:09:14 18° E 20:12:59 10° ENE
Meteor 1-29 3.6 20:07:02 10° N 20:10:28 63° WNW 20:13:53 10° SSW
Meteor 2-4 Rocket 4.1 20:05:19 10° NNW 20:11:10 75° W 20:17:03 10° S
Helios 1B rocket 3.3 20:08:14 10° N 20:12:18 56° WNW 20:16:19 10° SSW
Tiangong 1 1.2 20:09:36 10° WSW 20:12:40 60° S 20:15:44 10° E
Meteor 2-16 Rocket 4.4 20:06:43 10° S 20:12:44 68° E 20:18:47 10° NNE
Cosmos 2278 3.8 20:08:06 10° S 20:13:35 53° ESE 20:19:08 10° NE
BREEZE-M DEB (TANK) 3.9 20:16:10 10° WNW 20:19:02 48° NNE 20:26:36 10° E
Cosmos 1975 3.6 20:16:13 10° SSE 20:19:51 31° E 20:23:30 10° NNE
Cosmos 1821 Rocket 4.0 20:13:48 10° S 20:19:55 88° W 20:26:03 10° N
USA 215 4.5 20:15:09 10° ENE 20:20:50 33° NNE 20:26:31 10° NW
Okean 2 3.6 20:18:07 10° NNW 20:22:18 77° W 20:26:27 10° S
Cosmos 1605 Rocket 4.1 20:16:46 10° S 20:22:58 59° E 20:29:07 10° NNE
Lacrosse 5 rocket 1.0 20:22:42 10° NW 20:26:29 84° NE 20:29:46 12° SE
Cosmos 2369 3.7 20:21:42 10° S 20:27:15 61° ESE 20:32:54 10° NNE
NOSS 7 (D) 4.3 20:25:11 10° SSW 20:28:35 68° SE 20:31:59 10° NE
H-2A R/B 2.8 20:24:53 10° SSE 20:28:46 88° WSW 20:32:44 10° NNW
Cosmos 1980 Rocket 3.6 20:28:16 10° SE 20:31:49 17° E 20:35:24 10° ENE
NOSS 3-4 (A) 4.3 20:29:26 10° NW 20:36:21 63° WSW 20:43:39 10° SSE
NOSS 3-4 (C) 4.3 20:29:33 10° NW 20:36:28 63° WSW 20:43:47 10° SSE
Meteor 1-12 Rocket 4.3 20:31:24 10° S 20:37:01 61° E 20:42:46 10° NNE
CZ-4 DEB 3.0 20:38:27 14° SE 20:40:58 46° ENE 20:44:01 10° N
YAOGAN 11 4.3 20:36:46 10° SSE 20:41:10 55° ENE 20:45:33 10° N
SJ-11-01 4.4 20:40:21 10° SSE 20:44:57 59° ENE 20:49:35 10° N
Cosmos 2208 Rocket 4.4 20:40:52 10° SSW 20:46:11 73° WNW 20:51:37 10° NNE
CZ-2D R/B 4.3 20:43:42 10° S 20:47:25 47° W 20:51:13 10° NNW
Cosmos 1461 3.7 20:44:31 10° NW 20:48:26 45° WSW 20:52:11 10° SSE
H-2A R/B 2.9 20:46:30 18° ESE 20:48:44 30° ENE 20:52:23 10° N
Cosmos 2123 Rocket 4.4 20:44:14 10° NNW 20:50:21 67° W 20:56:27 10° S
Cosmos 1626 Rocket 3.5 20:46:19 10° N 20:50:45 87° E 20:55:07 10° S
Cosmos 2298 Rocket 4.1 20:46:20 10° NNW 20:51:39 66° ENE 20:55:58 16° SSE
OAO 2 Rocket 4.5 20:47:33 10° SW 20:51:43 26° S 20:54:03 19° SE
Cosmos 1939 Rocket 3.1 20:50:49 16° SE 20:53:53 53° ENE 20:57:58 10° N
Cosmos 1455 Rocket 4.1 20:52:36 10° SSW 20:56:48 48° WNW 21:01:02 10° N
Cosmos 2263 Rocket 4.3 20:54:42 10° NNE 20:56:55 12° NE 20:59:09 10° ENE
Cosmos 2227 Rocket 2.9 20:52:23 10° NNW 20:57:54 54° WSW 21:03:22 10° S
ASTEX 1 4.5 20:53:54 10° NNE 20:58:05 26° E 20:59:48 22° ESE
Cosmos 1602 Rocket 3.7 20:55:07 10° NNW 20:59:36 76° W 21:04:01 10° S
deb Chang Zheng 4 4.3 20:55:45 10° NNE 20:59:48 33° E 21:02:03 21° SE
Envisat 3.1 20:57:13 16° SSE 21:01:13 61° ENE 21:06:14 10° N
Cosmos 1656 3.6 20:55:48 10° SSW 21:01:21 66° ESE 21:06:52 10° NNE
Cosmos 1937 Rocket 3.7 20:57:56 10° NNW 21:03:07 55° ENE 21:06:20 23° SE
Cosmos 1459 Rocket 4.1 21:00:01 10° SSE 21:05:48 51° E 21:11:41 10° NNE
Cosmos 1500 3.0 21:02:45 10° S 21:06:29 69° E 21:10:15 10° NNE
Iridium 4 Rocket 3.5 21:03:39 10° N 21:08:50 78° W 21:13:31 10° S
H-2A R/B 3.8 21:08:12 13° ENE 21:09:28 14° ENE 21:12:04 10° NNE
ALOS 4.2 21:07:17 10° SSW 21:11:21 29° W 21:15:26 10° NW
Cosmos 2084 3.3 21:08:42 10° NW 21:12:45 82° SW 21:14:49 29° SSE
Cosmos 2297 Rocket 2.8 21:07:52 10° NNW 21:13:24 56° WSW 21:18:31 12° S
Cosmos 990 Rocket 4.2 21:12:11 10° NNW 21:17:22 54° ENE 21:19:46 30° SE
Cosmos 1340 3.1 21:14:02 10° N 21:17:41 43° ENE 21:18:25 38° ESE
Cosmos 2150 Rocket 3.9 21:12:58 10° NNW 21:18:09 85° WSW 21:21:30 22° SSE
RESURS DK-1 2.3 21:15:46 10° NNW 21:19:55 69° ENE 21:21:23 38° SE
CZ-3C R/B 4.5 20:52:55 10° WSW 21:20:48 23° SW 21:28:19 11° S
Cosmos 2058 Rocket 3.9 21:26:12 31° E 21:26:12 31° E 21:30:11 10° NNE
YAOGAN 6 2.9 21:26:58 44° E 21:27:21 47° ENE 21:30:56 10° N
SPOT 1/Viking Rocket 4.1 21:26:21 32° ESE 21:28:04 41° ENE 21:32:57 10° N
DELTA 2 R/B (1) 4.3 21:24:06 10° W 21:29:12 38° SSW 21:31:01 29° SSE
BREEZE-M DEB (TANK) 3.8 21:16:07 10° SW 21:30:02 63° SSE 21:32:42 27° E
ERS-1 Rocket 3.6 21:27:56 13° S 21:32:18 54° W 21:37:15 10° NNW
Cosmos 1606 Rocket 3.5 21:34:01 43° SSE 21:35:13 59° E 21:39:35 10° NNE
Cosmos 1802 Rocket 4.0 21:29:34 12° S 21:35:34 75° E 21:42:00 10° NNE
MetOp-A 4.1 21:34:10 33° SSE 21:36:36 74° ENE 21:41:58 10° N
Cosmos 1898 Rocket 4.2 21:35:01 10° NNW 21:40:10 52° WSW 21:43:26 21° S
Cosmos 1743 2.7 21:40:01 36° SSW 21:41:33 83° W 21:45:29 10° N
Cosmos 1763 Rocket 3.4 21:43:23 37° SSE 21:45:10 59° ESE 21:50:10 10° NNE
Cosmos 1125 Rocket 4.0 21:41:26 10° N 21:46:22 41° ENE 21:47:16 38° E
Lacrosse 5 2.0 21:41:42 10° NW 21:46:45 68° SW 21:48:07 46° SSE
Tiangong 1 2.5 21:46:01 10° W 21:47:55 31° WSW 21:47:55 31° WSW
Cosmos 2016 Rocket 3.8 21:47:10 22° S 21:51:15 82° E 21:57:29 10° N
Cosmos 1697 Rocket 3.0 21:46:57 10° SW 21:52:35 68° WNW 21:58:14 10° NNE
SPOT 5 3.0 21:50:56 35° S 21:53:01 72° WSW 21:57:52 10° NNW
Cosmos 1726 Rocket 3.4 21:58:23 63° S 21:59:04 89° WSW 22:03:31 10° N
SL-16 R/B 3.4 22:00:59 26° ENE 22:00:59 26° ENE 22:04:07 10° NE
SL-08 RB Rocket 3.8 22:01:28 60° E 22:01:41 61° ENE 22:06:17 10° N
NOAA 11 4.1 22:00:38 53° SE 22:01:58 76° ENE 22:07:27 10° N
USA 215 3.5 22:00:24 36° E 22:03:08 63° NNE 22:09:36 10° NW
Cosmos 2173 Rocket 4.5 21:57:41 10° SSW 22:03:59 61° W 22:10:16 10° N
Cosmos 1842 3.3 22:00:46 10° N 22:04:21 73° N 22:04:21 73° N
Lacrosse 5 rocket 3.7 22:03:56 10° WSW 22:05:06 11° WSW 22:05:31 11° SW
Cosmos 841 Rocket 3.3 22:05:13 47° S 22:06:45 81° ESE 22:11:59 10° NNE
Landsat 7 4.1 22:12:15 54° ENE 22:12:15 54° ENE 22:16:43 10° N
ARGOS 3.0 22:12:12 60° SSE 22:13:14 88° WSW 22:18:40 10° NNW
Cosmos 1980 Rocket 2.3 22:09:29 10° SSW 22:15:08 73° WNW 22:20:52 10° NNE
Cosmos 2360 Rocket 4.5 22:19:43 10° ENE 22:19:43 10° ENE 22:19:46 10° ENE
Cosmos 1864 Rocket 4.3 22:17:10 47° S 22:19:05 88° E 22:25:15 10° N
Tsikada Rocket 4.0 22:15:14 10° N 22:21:41 84° W 22:23:28 51° S
Meteor 2-5 Rocket 4.2 22:18:01 10° N 22:23:44 47° ENE 22:23:48 47° ENE
CZ-4 R/B 4.2 22:19:20 10° NNE 22:23:06 53° NE 22:23:06 53° NE
H-2A R/B 3.8 22:23:38 21° WSW 22:24:47 24° W 22:28:10 10° NW
Meteor 1-15 Rocket 4.2 22:24:50 56° SSW 22:26:12 88° WNW 22:32:07 10° N
Terra 2.3 22:28:05 49° NE 22:28:05 49° NE 22:32:04 10° N
Cosmos 1666 3.9 22:31:54 40° NW 22:31:54 40° NW 22:34:52 10° N
Cosmos 372 Rocket 4.1 22:31:14 10° NNW 22:35:52 63° NNE 22:35:52 63° NNE
GP-B 4.3 22:35:37 10° N 22:38:18 34° NNE 22:38:18 34° NNE
Cosmos 2228 3.9 22:41:51 48° NNW 22:41:51 48° NNW 22:45:12 10° N
Cosmos 2263 Rocket 2.4 22:36:36 10° NNW 22:41:51 58° NE 22:41:51 58° NE
Cosmos 2346 Rocket 4.3 22:36:18 10° N 22:42:33 77° E 22:42:47 76° ESE
Cosmos 2322 Rocket 2.3 22:48:05 64° NE 22:48:05 64° NE 22:52:51 10° NNE
Meteor 1-24 Rocket 4.5 22:41:28 10° N 22:46:46 43° ENE 22:46:46 43° ENE
H-2A R/B 2.1 22:48:51 68° NW 22:48:51 68° NW 22:53:14 10° NNW
CZ-4B R/B 4.3 22:57:18 10° N 23:01:48 43° WNW 23:02:02 42° WNW
GEOS 3 Rocket 4.1 23:00:58 10° NE 23:04:59 54° NNE 23:04:59 54° NNE
Cosmos 2233 Rocket 4.4 23:15:54 51° WSW 23:16:40 54° WNW 23:22:47 10° N
Cosmos 2278 Rocket 4.1 23:23:11 10° N 23:27:12 19° NE 23:27:33 19° NE
Cosmos 2034 Rocket 4.4 23:37:32 55° NNE 23:37:32 55° NNE 23:42:20 10° N
SL-16 R/B 3.2 23:42:47 41° WNW 23:43:07 41° WNW 23:48:28 10° NNE
USA 215 4.1 23:47:44 39° W 23:47:44 39° W 23:52:32 10° WNW
